Regional Weather Roundup
Issued by NWS

Home | Current Version | Previous Version | Graphics & Text | Print | Product List | Glossary On
Versions: 1 2 3 4 5 6 7 8 9 10 11 12 13 14 15 16 17 18 19 20 21 22 23 24 25 26 27 28 29 30 31 32 33 34 35 36 37 38 39 40 41 42 43 44 45 46 47 48 49 50
983
ASUS43 KLSX 281610
RWRMO

WEATHER SUMMARY FOR MISSOURI
NATIONAL WEATHER SERVICE SPRINGFIELD MO
1100 AM CDT TUE MAR 28 2017

NOTE: "FAIR" INDICATES FEW OR NO CLOUDS BELOW 12,000 FEET WITH NO
       SIGNIFICANT WEATHER AND/OR OBSTRUCTIONS TO VISIBILITY.
       CURRENT SKY AND/OR WEATHER CONDITIONS ARE NOT AVAILABLE FOR
       CHILLICOTHE AND FARMINGTON.

MOZ001>031-035>038-043-044-053-054-281700-
...NORTHERN AND WESTERN MISSOURI...

CITY           SKY/WX    TMP DP  RH WIND       PRES   REMARKS
KANSAS CTY INT DRIZZLE   50  49  96 NE7       30.10R FOG
KANSAS C DTWN  CLOUDY    51  48  89 E6        30.10R FOG
LEE`S SUMMIT   CLOUDY    49  48  97 NE5       30.10R FOG
ST JOSEPH      CLOUDY   N/A N/A N/A MISG      30.11R
CHILLICOTHE      N/A     50  48  93 N5        30.12R
KIRKSVILLE     CLOUDY    50  48  93 E5        30.11R FOG

$$
MOZ066>068-077>081-088>096-101>105-281700-
...SOUTHWEST MISSOURI...

CITY           SKY/WX    TMP DP  RH WIND       PRES   REMARKS
SPRINGFIELD    CLOUDY    56  50  80 E9        30.05R
JOPLIN         CLOUDY    54  49  83 E8        30.05S
BRANSON        CLOUDY    55  48  76 SE8       30.06R

$$
MOZ032>034-039>042-045>050-055>058-069>072-281700-
...CENTRAL MISSOURI...

CITY           SKY/WX    TMP DP  RH WIND       PRES   REMARKS
COLUMBIA       CLOUDY    53  49  86 E9        30.08S
JEFFERSON CITY CLOUDY    55  49  80 E7        30.09S
ROLLA          CLOUDY    53  49  86 E6        30.07R
SEDALIA        CLOUDY    53  50  89 E8        30.10R
WHITEMAN AFB   CLOUDY    52  52 100 E5        30.08R FOG
WARRENSBURG    CLOUDY    50  48  93 NE3       30.10R FOG
OSAGE BEACH      N/A     55  51  86 E6        30.09R

$$
MOZ051-052-059>065-281700-
...EAST CENTRAL MISSOURI...

CITY           SKY/WX    TMP DP  RH WIND       PRES   REMARKS
ST LOUIS INTL  CLOUDY    57  49  74 NE6       30.09R
SPIRIT OF STL  CLOUDY    54  49  83 NE7       30.08R
ST CHARLES     CLOUDY    56  50  80 E5        30.08R

$$
MOZ072>076-082>087-097>100-106>115-281700-
...SOUTH CENTRAL AND SOUTHEAST MISSOURI...

CITY           SKY/WX    TMP DP  RH WIND       PRES   REMARKS
CAPE GIRARDEAU CLOUDY    56  49  77 N5        30.08R
FARMINGTON     CLOUDY    52  50  93 NE6       30.10R
POPLAR BLUFF   CLOUDY    59  52  77 NE7       30.08R
WEST PLAINS    CLOUDY    57  51  80 E7        30.07S

$$




USA.gov is the U.S. government's official web portal to all federal, state and local government web resources and services.